Ogallala, NE

4:39 PM MDT on April 29, 2017 (GMT -0600)
Searle

Weather History for KOGA - December, 2013

Change the Weather History Date:

Tuesday, December 10, 2013

  Actual Average Record
Temperature  
Mean Temperature 24 °F -  
Max Temperature 40 °F 42 °F 61 °F (1993)
Min Temperature 8 °F 13 °F -16 °F (1972)
Degree Days  
Heating Degree Days 41    
Moisture  
Dew Point 12 °F    
Average Humidity 60    
Maximum Humidity 80    
Minimum Humidity 32    
Precipitation  
Precipitation 0.00 in - - ()
Sea Level Pressure  
Sea Level Pressure 30.09 in    
Wind  
Wind Speed 8 mph (NW)    
Max Wind Speed 24 mph    
Max Gust Speed 39 mph    
Visibility 10 miles    
Events      
Averages and records for this station are not official NWS values.
T = Trace of Precipitation, MM = Missing Value Source: NWS Daily Summary

Daily Weather History Graph

Daily Weather History Graph

Search for Another Location

Airport or City:

Trip Planner

Search our weather history database for the weather conditions in past years. The results will help you decide how hot, cold, wet, or windy it might be!

Date:

Astronomy

Dec. 10, 2013 Rise Set
Actual Time 7:01 AM MST 4:18 PM MST
Civil Twilight 6:30 AM MST 4:49 PM MST
Nautical Twilight 5:56 AM MST 5:24 PM MST
Astronomical Twilight 5:22 AM MST 5:57 PM MST
Moon 12:23 PM MST (12/10) 12:18 AM MST (12/10)
Length of Visible Light 10h 18m
Length of Day
9h 16m
Waxing Gibbous, 62% of the Moon is Illuminated
Dec 10
Waxing Gibbous
Dec 17
Full
Dec 25
Last Quarter
Jan 1
New
Jan 7
First Quarter

Hourly Weather History & Observations

Time (MST) Temp. Windchill Dew Point Humidity Pressure Visibility Wind Dir Wind Speed Gust Speed Precip Events Conditions
12:15 AM 18.3 °F 6.6 °F 8.8 °F 66% 30.08 in 10.0 mi WNW 10.4 mph - N/A   Clear
12:35 AM 17.1 °F 6.6 °F 7.9 °F 67% 30.09 in 10.0 mi West 8.1 mph - N/A   Clear
12:55 AM 16.2 °F 4.7 °F 7.0 °F 67% 30.09 in 10.0 mi WSW 9.2 mph - N/A   Clear
1:15 AM 14.2 °F 4.1 °F 5.9 °F 70% 30.09 in 10.0 mi WSW 6.9 mph - N/A   Clear
1:35 AM 14.2 °F 2.2 °F 6.3 °F 71% 30.08 in 10.0 mi WSW 9.2 mph - N/A   Clear
1:55 AM 15.3 °F 5.4 °F 6.8 °F 69% 30.09 in 10.0 mi SW 6.9 mph - N/A   Clear
2:15 AM 14.9 °F 5.0 °F 6.3 °F 69% 30.08 in 10.0 mi West 6.9 mph - N/A   Clear
2:35 AM 14.9 °F 2.3 °F 6.4 °F 69% 30.09 in 10.0 mi West 10.4 mph - N/A   Clear
2:55 AM 12.4 °F 0.9 °F 5.0 °F 72% 30.09 in 10.0 mi West 8.1 mph - N/A   Clear
3:15 AM 12.2 °F -1.8 °F 5.0 °F 73% 30.08 in 10.0 mi West 11.5 mph - N/A   Clear
3:35 AM 11.3 °F -1.3 °F 5.0 °F 76% 30.07 in 10.0 mi WSW 9.2 mph - N/A   Clear
3:55 AM 13.3 °F 1.1 °F 6.1 °F 73% 30.07 in 10.0 mi WSW 9.2 mph - N/A   Clear
4:15 AM 12.4 °F - 5.2 °F 73% 30.07 in 10.0 mi Calm Calm - N/A   Clear
4:35 AM 10.0 °F 1.8 °F 3.9 °F 76% 30.08 in 10.0 mi WSW 4.6 mph - N/A   Clear
4:55 AM 8.6 °F 0.1 °F 3.2 °F 79% 30.08 in 10.0 mi WSW 4.6 mph - N/A   Clear
5:15 AM 9.7 °F - 3.9 °F 77% 30.08 in 10.0 mi Calm Calm - N/A   Clear
5:35 AM 10.9 °F 2.9 °F 4.5 °F 75% 30.08 in 10.0 mi West 4.6 mph - N/A   Clear
5:55 AM 9.0 °F - 3.2 °F 77% 30.09 in 10.0 mi Calm Calm - N/A   Clear
6:15 AM 8.4 °F 1.8 °F 2.8 °F 78% 30.09 in 10.0 mi West 3.5 mph - N/A   Clear
6:35 AM 9.1 °F - 3.6 °F 78% 30.08 in 10.0 mi Calm Calm - N/A   Clear
6:55 AM 9.5 °F - 3.2 °F 76% 30.08 in 10.0 mi Calm Calm - N/A   Clear
7:15 AM 8.1 °F - 2.3 °F 77% 30.08 in 10.0 mi Calm Calm - N/A   Clear
7:35 AM 8.6 °F - 3.0 °F 78% 30.07 in 10.0 mi Calm Calm - N/A   Clear
7:55 AM 12.0 °F - 6.4 °F 78% 30.07 in 10.0 mi Calm Calm - N/A   Clear
8:15 AM 16.7 °F 9.6 °F 9.7 °F 74% 30.07 in 10.0 mi WSW 4.6 mph - N/A   Clear
8:35 AM 19.9 °F 13.4 °F 10.0 °F 65% 30.07 in 10.0 mi West 4.6 mph - N/A   Clear
8:55 AM 22.5 °F 16.3 °F 10.9 °F 61% 30.06 in 10.0 mi West 4.6 mph - N/A   Clear
9:15 AM 24.6 °F 18.8 °F 11.1 °F 57% 30.05 in 10.0 mi West 4.6 mph - N/A   Clear
9:35 AM 27.3 °F 17.7 °F 10.8 °F 50% 30.07 in 10.0 mi WSW 10.4 mph - N/A   Clear
9:55 AM 29.8 °F 23.9 °F 9.5 °F 43% 30.06 in 10.0 mi WSW 5.8 mph - N/A   Clear
10:15 AM 31.1 °F - 8.8 °F 39% 30.04 in 10.0 mi Calm Calm - N/A   Clear
10:35 AM 32.7 °F - 10.2 °F 39% 30.02 in 10.0 mi Calm Calm - N/A   Scattered Clouds
10:55 AM 33.6 °F - 10.2 °F 38% 30.02 in 10.0 mi Calm Calm - N/A   Overcast
11:15 AM 34.3 °F - 10.2 °F 37% 30.02 in 10.0 mi Calm Calm - N/A   Overcast
11:35 AM 35.6 °F 31.7 °F 10.4 °F 35% 30.01 in 10.0 mi NE 4.6 mph - N/A   Overcast
11:55 AM 37.0 °F - 10.2 °F 33% 30.00 in 10.0 mi Calm Calm - N/A   Overcast
12:15 PM 38.3 °F 34.8 °F 10.9 °F 32% 29.99 in 10.0 mi East 4.6 mph - N/A   Overcast
12:35 PM 38.3 °F 32.5 °F 10.8 °F 32% 29.99 in 10.0 mi NNE 8.1 mph - N/A   Overcast
12:55 PM 37.4 °F 31.4 °F 12.4 °F 36% 29.99 in 10.0 mi North 8.1 mph - N/A   Overcast
1:15 PM 39.2 °F 32.0 °F 11.7 °F 32% 29.98 in 10.0 mi NNE 11.5 mph - N/A   Overcast
1:35 PM 38.8 °F 34.6 °F 11.1 °F 32% 29.99 in 10.0 mi North 5.8 mph - N/A   Overcast
1:55 PM 38.5 °F 33.4 °F 11.1 °F 33% 29.98 in 10.0 mi NNE 6.9 mph - N/A   Overcast
2:15 PM 39.4 °F - 11.5 °F 32% 29.98 in 10.0 mi Calm Calm - N/A   Overcast
2:35 PM 40.3 °F 32.2 °F 14.7 °F 35% 29.99 in 10.0 mi WNW 15.0 mph 24.2 mph N/A   Overcast
2:55 PM 39.6 °F 33.0 °F 15.3 °F 37% 29.99 in 10.0 mi NW 10.4 mph - N/A   Overcast
3:15 PM 39.2 °F 30.5 °F 16.7 °F 40% 29.99 in 10.0 mi NW 16.1 mph - N/A   Overcast
3:35 PM 38.8 °F 28.0 °F 18.0 °F 43% 30.00 in 10.0 mi WNW 24.2 mph 39.1 mph N/A   Overcast
3:55 PM 37.9 °F 28.2 °F 17.6 °F 44% 30.01 in 10.0 mi WNW 18.4 mph 25.3 mph N/A   Overcast
4:15 PM 37.0 °F 28.1 °F 18.5 °F 47% 30.02 in 10.0 mi WNW 15.0 mph - N/A   Overcast
4:35 PM 36.9 °F 26.2 °F 17.1 °F 45% 30.02 in 10.0 mi WNW 20.7 mph 31.1 mph N/A   Mostly Cloudy
4:55 PM 36.0 °F 26.0 °F 17.1 °F 46% 30.04 in 10.0 mi NW 17.3 mph 23.0 mph N/A   Overcast
5:15 PM 35.4 °F 25.6 °F 17.8 °F 49% 30.04 in 10.0 mi NW 16.1 mph - N/A   Overcast
5:35 PM 34.7 °F 25.5 °F 18.3 °F 51% 30.06 in 10.0 mi NW 13.8 mph 20.7 mph N/A   Mostly Cloudy
5:55 PM 34.0 °F 26.6 °F 18.1 °F 52% 30.07 in 10.0 mi NW 9.2 mph 12.7 mph N/A   Mostly Cloudy
6:15 PM 33.1 °F 26.9 °F 18.3 °F 55% 30.08 in 10.0 mi NW 6.9 mph - N/A   Overcast
6:35 PM 32.9 °F 24.7 °F 18.3 °F 55% 30.10 in 10.0 mi NW 10.4 mph - N/A   Overcast
6:55 PM 32.9 °F 24.1 °F 18.5 °F 55% 30.10 in 10.0 mi NW 11.5 mph - N/A   Overcast
7:15 PM 31.6 °F 21.6 °F 18.5 °F 58% 30.11 in 10.0 mi NW 13.8 mph - N/A   Overcast
7:35 PM 30.7 °F 20.0 °F 18.9 °F 61% 30.13 in 10.0 mi NNW 15.0 mph - N/A   Mostly Cloudy
7:55 PM 29.5 °F 20.4 °F 18.7 °F 64% 30.14 in 10.0 mi NNW 10.4 mph - N/A   Mostly Cloudy
8:15 PM 30.0 °F 20.0 °F 20.1 °F 67% 30.16 in 10.0 mi NNW 12.7 mph 18.4 mph N/A   Mostly Cloudy
8:35 PM 30.6 °F 20.2 °F 21.2 °F 68% 30.17 in 10.0 mi NNW 13.8 mph - N/A   Mostly Cloudy
8:55 PM 30.0 °F 16.9 °F 22.1 °F 72% 30.19 in 10.0 mi North 21.9 mph 26.5 mph N/A   Scattered Clouds
9:15 PM 29.3 °F 17.0 °F 21.2 °F 72% 30.21 in 10.0 mi North 18.4 mph 27.6 mph N/A   Mostly Cloudy
9:35 PM 27.7 °F 15.6 °F 19.9 °F 73% 30.23 in 10.0 mi North 16.1 mph - N/A   Mostly Cloudy
9:55 PM 25.5 °F 13.8 °F 19.4 °F 78% 30.26 in 10.0 mi North 13.8 mph - N/A   Scattered Clouds
10:15 PM 24.8 °F 14.6 °F 18.5 °F 77% 30.27 in 10.0 mi North 10.4 mph 13.8 mph N/A   Clear
10:35 PM 23.4 °F 11.6 °F 18.1 °F 80% 30.29 in 10.0 mi NNE 12.7 mph - N/A   Clear
10:55 PM 22.1 °F 10.0 °F 16.7 °F 80% 30.30 in 10.0 mi North 12.7 mph 16.1 mph N/A   Clear
11:15 PM 21.2 °F 8.3 °F 14.7 °F 76% 30.30 in 10.0 mi NNE 13.8 mph - N/A   Clear
11:35 PM 20.3 °F 9.8 °F 14.0 °F 77% 30.31 in 10.0 mi North 9.2 mph - N/A   Clear
11:55 PM 20.1 °F 7.5 °F 14.4 °F 78% 30.31 in 10.0 mi North 12.7 mph - N/A   Clear